Total_Precipitation_Accumulation
0.74 0.69 0.65 0.61 0.57 0.55 0.52 0.48 0.43 0.39 0.34 0.33 0.32 0.29 0.28 0.26 0.26 0.24 0.20 0.20 0.20 0.24 0.37 0.58 0.84 1.08 1.27 1.44 1.54 1.44 1.39 1.24 0.98 0.82 0.79 0.87 0.91 0.97 0.98 1.04 1.04 0.93 0.91
0.72 0.71 0.68 0.67 0.60 0.54 0.52 0.50 0.45 0.41 0.35 0.32 0.28 0.26 0.26 0.25 0.26 0.26 0.25 0.26 0.24 0.23 0.30 0.44 0.64 0.95 1.20 1.37 1.56 1.68 1.55 1.51 1.36 1.07 0.90 0.86 0.89 0.94 0.97 1.03 1.09 1.08 0.99
0.67 0.71 0.72 0.68 0.63 0.56 0.53 0.51 0.51 0.50 0.45 0.38 0.32 0.27 0.24 0.23 0.22 0.22 0.24 0.28 0.29 0.28 0.29 0.37 0.47 0.70 1.02 1.29 1.48 1.72 1.77 1.63 1.64 1.51 1.24 1.03 0.96 0.95 0.99 1.04 1.10 1.17 1.12
0.70 0.72 0.74 0.71 0.65 0.62 0.59 0.55 0.52 0.51 0.48 0.43 0.38 0.35 0.30 0.26 0.21 0.19 0.19 0.22 0.29 0.32 0.31 0.33 0.39 0.51 0.80 1.13 1.44 1.68 2.07 1.94 1.82 1.87 1.80 1.47 1.18 1.08 1.09 1.13 1.17 1.22 1.25
0.70 0.73 0.76 0.75 0.74 0.73 0.68 0.64 0.58 0.51 0.47 0.43 0.40 0.37 0.33 0.30 0.27 0.25 0.21 0.19 0.22 0.29 0.35 0.36 0.39 0.41 0.57 0.89 1.23 1.56 2.05 2.39 2.21 2.12 2.18 2.07 1.70 1.39 1.28 1.29 1.33 1.35 1.39
0.72 0.70 0.72 0.75 0.78 0.77 0.71 0.66 0.63 0.55 0.48 0.45 0.43 0.40 0.34 0.29 0.26 0.24 0.22 0.21 0.20 0.22 0.32 0.39 0.42 0.39 0.42 0.57 0.87 1.30 1.75 2.23 2.49 2.38 2.34 2.38 2.24 1.93 1.68 1.55 1.52 1.57 1.59
0.80 0.76 0.73 0.73 0.76 0.77 0.69 0.62 0.61 0.61 0.58 0.55 0.59 0.54 0.46 0.37 0.31 0.27 0.24 0.21 0.19 0.18 0.22 0.34 0.43 0.42 0.38 0.41 0.53 0.79 1.27 1.89 2.42 2.66 2.64 2.55 2.52 2.34 2.06 1.84 1.69 1.72 1.80
0.85 0.83 0.75 0.75 0.75 0.74 0.71 0.65 0.61 0.62 0.61 0.61 0.64 0.67 0.59 0.53 0.43 0.33 0.29 0.26 0.22 0.21 0.23 0.27 0.37 0.44 0.43 0.39 0.36 0.47 0.74 1.30 1.97 2.52 2.81 2.86 2.82 2.75 2.49 2.20 1.97 1.92 2.00
0.85 0.88 0.82 0.75 0.75 0.76 0.73 0.66 0.60 0.60 0.60 0.56 0.56 0.75 0.78 0.57 0.38 0.30 0.28 0.28 0.26 0.25 0.25 0.27 0.33 0.40 0.46 0.46 0.43 0.44 0.51 0.82 1.41 2.11 2.64 2.91 3.02 3.15 3.05 2.66 2.37 2.19 2.18
0.83 0.82 0.85 0.83 0.78 0.76 0.73 0.69 0.64 0.60 0.63 0.63 0.58 0.58 0.63 0.62 0.61 0.42 0.27 0.26 0.29 0.30 0.29 0.28 0.31 0.36 0.43 0.50 0.52 0.55 0.56 0.63 0.99 1.53 2.20 2.79 3.16 3.44 3.62 3.24 2.77 2.55 2.46
0.82 0.83 0.81 0.84 0.83 0.77 0.73 0.72 0.73 0.71 0.70 0.69 0.64 0.57 0.54 0.50 0.51 0.61 0.42 0.29 0.31 0.31 0.33 0.35 0.35 0.38 0.42 0.49 0.54 0.58 0.66 0.67 0.87 1.22 1.69 2.39 3.01 3.59 4.09 3.95 3.24 2.75 2.56
0.86 0.81 0.81 0.80 0.81 0.78 0.71 0.68 0.71 0.75 0.75 0.71 0.66 0.61 0.62 0.61 0.53 0.58 0.53 0.37 0.35 0.33 0.35 0.40 0.44 0.45 0.45 0.49 0.53 0.64 0.70 0.74 0.83 1.03 1.29 1.78 2.43 3.04 3.85 4.21 3.71 3.05 2.64
0.92 0.85 0.80 0.77 0.76 0.76 0.75 0.72 0.73 0.72 0.73 0.76 0.75 0.67 0.61 0.57 0.55 0.62 0.67 0.56 0.49 0.41 0.40 0.42 0.44 0.50 0.55 0.56 0.56 0.62 0.64 0.72 0.83 0.95 1.08 1.26 1.69 2.39 3.20 4.07 4.31 3.66 3.07
0.86 0.86 0.87 0.81 0.73 0.71 0.74 0.79 0.78 0.76 0.75 0.77 0.75 0.72 0.67 0.57 0.59 0.67 0.76 0.86 0.81 0.57 0.48 0.44 0.41 0.45 0.53 0.61 0.63 0.66 0.61 0.71 0.80 0.90 0.99 1.09 1.23 1.66 2.46 3.41 4.35 4.41 3.73
0.86 0.92 0.93 0.92 0.85 0.79 0.75 0.77 0.79 0.78 0.82 0.81 0.80 0.78 0.78 0.70 0.66 0.67 0.72 0.88 1.13 0.98 0.59 0.43 0.42 0.45 0.52 0.61 0.70 0.68 0.66 0.70 0.77 0.89 1.01 1.07 1.14 1.33 1.71 2.35 3.23 4.18 4.38
0.84 0.96 1.00 0.94 0.94 0.91 0.86 0.82 0.79 0.77 0.83 0.85 0.86 0.87 0.85 0.84 0.82 0.77 0.77 0.82 0.96 1.09 0.81 0.42 0.39 0.43 0.56 0.66 0.78 0.77 0.77 0.84 0.83 0.90 0.98 1.03 1.06 1.17 1.37 1.73 2.29 3.16 4.03
0.79 0.87 0.99 1.00 0.99 0.99 0.95 0.93 0.89 0.88 0.88 0.88 0.92 0.98 0.96 0.94 1.00 0.96 0.90 0.86 0.87 0.97 0.97 0.51 0.39 0.42 0.62 0.81 0.86 0.88 0.92 0.87 0.81 0.84 0.90 0.96 1.01 1.10 1.27 1.50 1.82 2.36 3.19
0.80 0.83 0.93 1.06 1.08 1.06 1.03 1.01 0.99 1.03 1.09 1.05 0.99 1.01 1.04 1.05 1.09 1.07 1.06 0.97 0.86 0.81 0.90 0.73 0.51 0.53 0.66 0.82 0.89 0.92 0.98 0.96 0.88 0.90 0.93 0.98 1.05 1.14 1.28 1.43 1.63 1.91 2.52
0.85 0.85 0.93 1.08 1.16 1.17 1.13 1.05 1.04 1.08 1.18 1.26 1.23 1.21 1.16 1.15 1.16 1.11 1.12 1.07 0.97 0.86 0.84 0.85 0.68 0.62 0.69 0.80 0.92 1.00 1.04 1.03 1.03 1.06 1.00 1.02 1.11 1.16 1.26 1.37 1.49 1.69 1.97
0.87 0.88 0.89 0.98 1.10 1.21 1.29 1.29 1.30 1.25 1.25 1.29 1.31 1.33 1.30 1.31 1.27 1.23 1.22 1.18 1.14 1.13 1.07 1.06 0.95 0.81 0.78 0.82 1.00 1.17 1.25 1.12 1.10 1.10 1.10 1.09 1.16 1.21 1.26 1.24 1.20 1.38 1.63
0.88 0.88 0.89 0.88 0.96 1.23 1.58 1.57 1.49 1.43 1.30 1.21 1.15 1.16 1.23 1.38 1.44 1.52 1.56 1.46 1.42 1.50 1.47 1.40 1.23 1.06 0.96 1.01 1.12 1.21 1.42 1.36 1.24 1.17 1.17 1.10 1.11 1.12 1.12 1.14 1.15 1.28 1.49
0.98 0.94 0.91 0.88 0.91 1.11 1.56 1.62 1.35 1.14 1.02 1.01 1.00 0.93 0.95 1.15 1.25 1.39 1.53 1.56 1.62 1.76 1.84 1.77 1.52 1.29 1.06 1.01 1.12 1.34 1.55 1.71 1.63 1.27 1.27 1.28 1.22 1.24 1.15 1.09 1.13 1.19 1.35
1.01 1.00 0.93 0.87 0.82 0.89 1.29 1.42 1.22 0.95 0.82 0.78 0.81 0.81 0.82 0.89 1.04 1.04 1.20 1.31 1.39 1.55 1.76 1.85 1.81 1.41 1.15 1.05 1.30 1.50 1.57 1.69 1.60 1.39 1.46 1.64 1.46 1.36 1.24 1.19 1.18 1.10 1.18
1.07 1.02 0.96 0.89 0.85 0.80 1.13 1.34 1.22 0.89 0.75 0.68 0.68 0.66 0.67 0.72 0.87 1.04 1.16 1.18 1.13 1.24 1.51 1.70 1.84 1.65 1.43 1.37 1.58 1.87 2.01 2.04 1.86 1.66 1.62 1.92 1.70 1.52 1.41 1.29 1.20 1.06 1.08
1.02 1.01 0.96 0.87 0.85 0.83 1.03 1.36 1.35 0.97 0.80 0.68 0.66 0.66 0.62 0.61 0.85 1.09 1.12 1.08 0.99 1.02 1.20 1.49 1.70 1.79 1.84 1.94 2.08 2.37 2.56 2.52 2.37 2.03 1.79 1.92 1.92 1.80 1.65 1.54 1.34 1.14 1.03
0.96 0.97 0.97 0.90 0.85 0.81 0.96 1.35 1.54 1.10 0.90 0.77 0.70 0.68 0.75 0.79 0.96 1.03 0.99 1.05 1.10 1.00 0.98 1.07 1.18 1.30 1.39 1.54 1.85 2.11 2.33 2.46 2.43 2.39 1.97 1.88 2.02 2.07 2.26 1.89 1.48 1.13 0.99